Location: Madden
(51.3728°N, 114.3297°W)
Time: 23:45:00
(UTC+00:00)

AO-91 - Visible Passes

Search period start: 06 December 2023 00:00
Search period end: 16 December 2023 00:00
Orbit: 445 x 755 km, 97.6° (Epoch: 06 December)

Date Brightness Start Highest point End Pass type
(mag) Time Alt. Az. Time Alt. Az. Time Alt. Az.
06 Dec ? 14:31:37 10° ENE 14:33:40 12° NE 14:35:43 10° NNE visible
07 Dec ? 14:41:54 10° E 14:44:40 15° NE 14:47:23 10° NNE visible
14 Dec ? 14:26:11 10° ENE 14:26:53 10° NE 14:27:35 10° NE visible
15 Dec ? 14:35:50 10° ENE 14:37:47 12° NE 14:39:40 10° NNE visible
